{"data":{"norad_id":56407,"intl_designator":"2023-061AK","name":"STARLINK-6282","alt_names":[],"object_type":"PAYLOAD","status":"ACTIVE","operator":null,"country":"US","launch_date":"2023-05-04","launch_site_code":"AFETR","launch_vehicle":null,"mission":null,"orbit_class":"UNKNOWN","rcs_meters":null,"size_class":null,"mass_kg":null,"dimensions":null,"purposes":["comms"],"wikipedia_slug":null,"has_3d_model":false,"image_url":null,"decayed_at":null,"tle_current":{"epoch":"2026-05-25T04:44:15.837792Z","epoch_age_seconds":54021,"freshness":"FRESH","line1":"1 56407U 23061AK  26145.19740553 -.00004489  00000+0 -15366-3 0  9996","line2":"2 56407  43.0044 115.1144 0001750 275.3935  84.6717 15.27583704168575","mean_motion":15.27583704,"eccentricity":0.000175,"inclination_deg":43.0044,"raan_deg":115.1144,"arg_perigee_deg":275.3935,"mean_anomaly_deg":84.6717,"bstar":-0.00015366,"rev_number":16857,"period_min":94.266520140883,"perigee_km":481.83729932769,"apogee_km":484.23871057942,"semimajor_km":6861.1750049536,"source":"CELESTRAK","updated_at":"2026-05-25T13:38:18.059172Z"}}}